Doha, Qatar

3:11 AM +03 on October 20, 2017 (GMT +0300)
Doha International

Weather History for OTBD - February, 2014

Change the Weather History Date:

Wednesday, February 19, 2014

  Actual Average Record
Temperature  
Mean Temperature 66 °F -  
Max Temperature 74 °F 77 °F 88 °F (2015)
Min Temperature 59 °F 60 °F 51 °F (2017)
Cooling Degree Days 2    
Growing Degree Days 16 (Base 50)    
Moisture  
Dew Point 47 °F    
Average Humidity 52    
Maximum Humidity 72    
Minimum Humidity 21    
Precipitation  
Precipitation 0.00 in 0.02 in - ()
Sea Level Pressure  
Sea Level Pressure 30.15 in    
Wind  
Wind Speed 10 mph ()    
Max Wind Speed 18 mph    
Max Gust Speed 29 mph    
Visibility 5.9 miles    
Events      
Averages and records for this station are not official NWS values.
T = Trace of Precipitation, MM = Missing Value Source: Averaged Metar Reports

Daily Weather History Graph

Daily Weather History Graph

Search for Another Location

Airport or City:

Trip Planner

Search our weather history database for the weather conditions in past years. The results will help you decide how hot, cold, wet, or windy it might be!

Date:

Astronomy

Feb. 19, 2014 Rise Set
Actual Time 6:05 AM +03 5:29 PM +03
Civil Twilight 5:42 AM +03 5:53 PM +03
Nautical Twilight 5:15 AM +03 6:20 PM +03
Astronomical Twilight 4:48 AM +03 6:46 PM +03
Moon 9:27 PM +03 (2/19) 8:26 AM +03 (2/19)
Length of Visible Light 12h 10m
Length of Day
11h 24m
Waning Gibbous, 82% of the Moon is Illuminated
Feb 19
Waning Gibbous
Feb 22
Last Quarter
Mar 1
New
Mar 8
First Quarter
Mar 16
Full

Hourly Weather History & Observations

Time (+03) Temp. Dew Point Humidity Pressure Visibility Wind Dir Wind Speed Gust Speed Precip Events Conditions
12:00 AM 62 °F 52 °F 61% 30.19 in 6 mi NW 9.2 mph - -   Scattered Clouds
12:00 AM 62.6 °F 51.8 °F 68% 30.18 in - NW 9.2 mph - N/A   Clear
12:30 AM 60.8 °F 51.8 °F 72% 30.18 in - NW 9.2 mph - N/A   Clear
1:00 AM 60.8 °F 51.8 °F 72% 30.18 in - NW 9.2 mph - N/A   Clear
1:30 AM 60.8 °F 51.8 °F 72% 30.15 in - NW 8.1 mph - N/A   Clear
2:00 AM 60.8 °F 51.8 °F 72% 30.15 in - NW 8.1 mph - N/A   Clear
2:30 AM 60.8 °F 51.8 °F 72% 30.15 in - WNW 9.2 mph - N/A   Clear
3:00 AM 61 °F 50 °F 59% 30.17 in 6 mi West 5.8 mph - -  
3:00 AM 60.8 °F 50.0 °F 68% 30.15 in - West 5.8 mph - N/A   Clear
3:30 AM 60.8 °F 50.0 °F 68% 30.15 in - WNW 6.9 mph - N/A   Clear
4:00 AM 60.8 °F 51.8 °F 72% 30.15 in - WNW 9.2 mph - N/A   Clear
4:30 AM 60.8 °F 51.8 °F 72% 30.15 in - WNW 10.4 mph - N/A   Clear
5:00 AM 60.8 °F 51.8 °F 72% 30.15 in 5.6 mi WNW 6.9 mph - N/A   Unknown
5:30 AM 60.8 °F 51.8 °F 72% 30.15 in 5.0 mi WNW 5.8 mph - N/A   Unknown
6:00 AM 60 °F 52 °F 66% 30.19 in 4 mi West 5.8 mph - -   Haze
6:00 AM 60.8 °F 51.8 °F 72% 30.18 in 4.3 mi West 5.8 mph - N/A   Unknown
6:30 AM 60.8 °F 51.8 °F 72% 30.18 in 4.3 mi WNW 6.9 mph - N/A   Unknown
7:00 AM 60.8 °F 51.8 °F 72% - 5.0 mi WNW 9.2 mph - N/A   Unknown
7:30 AM 62.6 °F 51.8 °F 68% 30.18 in 5.0 mi West 6.9 mph - N/A   Unknown
8:00 AM 62.6 °F 50.0 °F 63% 30.18 in 5.6 mi NW 9.2 mph - N/A   Unknown
8:30 AM 64.4 °F 50.0 °F 59% 30.21 in - WNW 11.5 mph - N/A   Clear
9:00 AM 66 °F 48 °F 42% 30.22 in 6 mi NW 15.0 mph - -  
9:00 AM 66.2 °F 48.2 °F 52% 30.21 in - NW 15.0 mph - N/A   Clear
10:00 AM 68.0 °F 48.2 °F 49% 30.21 in - NNW 15.0 mph - N/A   Clear
10:30 AM 69.8 °F 48.2 °F 46% 30.18 in - WNW 16.1 mph - N/A   Clear
11:00 AM 69.8 °F 46.4 °F 43% 30.18 in - NW 16.1 mph - N/A   Clear
12:00 PM 72 °F 48 °F 32% 30.17 in 7 mi NNW 15.0 mph - -  
12:00 PM 71.6 °F 48.2 °F 43% 30.15 in - NNW 15.0 mph - N/A   Clear
1:00 PM 73.4 °F 44.6 °F 36% 30.12 in 6.2 mi NNW 17.3 mph - N/A   Partly Cloudy
1:30 PM 73.4 °F 46.4 °F 38% 30.09 in 6.2 mi NW 13.8 mph 26.5 mph N/A   Partly Cloudy
2:00 PM 73.4 °F 42.8 °F 33% 30.09 in 6.2 mi NNW 17.3 mph - N/A   Partly Cloudy
2:30 PM 73.4 °F 42.8 °F 33% 30.09 in 6.2 mi NW 16.1 mph - N/A   Partly Cloudy
3:00 PM 73 °F 41 °F 21% 30.11 in 9 mi NW 13.8 mph - -   Scattered Clouds
3:00 PM 73.4 °F 41.0 °F 31% 30.09 in 6.2 mi NW 13.8 mph - N/A   Partly Cloudy
3:30 PM 71.6 °F 37.4 °F 29% 30.09 in - NW 17.3 mph - N/A   Clear
4:00 PM 71.6 °F 37.4 °F 29% 30.09 in - NNW 16.1 mph 28.8 mph N/A   Clear
4:30 PM 71.6 °F 39.2 °F 31% 30.12 in - NNW 18.4 mph - N/A   Clear
5:00 PM 69.8 °F 37.4 °F 31% 30.12 in - NW 15.0 mph - N/A   Clear
5:30 PM 69.8 °F 39.2 °F 33% 30.12 in - NW 12.7 mph - N/A   Clear
6:00 PM 68 °F 40 °F 24% 30.14 in 7 mi NW 12.7 mph - -  
6:00 PM 68.0 °F 39.2 °F 35% 30.12 in - NW 12.7 mph 24.2 mph N/A   Clear
6:30 PM 68.0 °F 41.0 °F 37% 30.12 in - NW 13.8 mph - N/A   Clear
7:00 PM 66.2 °F 39.2 °F 37% 30.12 in - NW 13.8 mph - N/A   Clear
7:30 PM 66.2 °F 42.8 °F 43% 30.15 in - NNW 12.7 mph - N/A   Clear
8:00 PM 66.2 °F 44.6 °F 46% 30.15 in - NW 13.8 mph - N/A   Clear
8:30 PM 64.4 °F 46.4 °F 52% 30.15 in - NW 11.5 mph - N/A   Clear
9:00 PM 64 °F 48 °F 45% 30.15 in 7 mi NW 11.5 mph - -  
9:00 PM 64.4 °F 48.2 °F 56% 30.15 in - NW 11.5 mph - N/A   Clear
9:30 PM 64.4 °F 48.2 °F 56% 30.12 in - NW 11.5 mph - N/A   Clear
10:00 PM 64.4 °F 48.2 °F 56% 30.12 in - NW 11.5 mph - N/A   Clear
10:30 PM 62.6 °F 48.2 °F 59% 30.12 in - NW 9.2 mph - N/A   Clear
11:00 PM 62.6 °F 48.2 °F 59% 30.12 in - NW 9.2 mph - N/A   Clear
11:30 PM 62.6 °F 48.2 °F 59% 30.12 in - NW 8.1 mph - N/A   Clear